Tracking 19651 objects as of 23-Apr-2019
HD Live streaming from Space Station
objects crossing your sky now

FLOCK 4A 8

Track FLOCK 4A 8 now!
10-day predictions
FLOCK 4A 8 is classified as:


NORAD ID: 44092
Int'l Code: 2019-018Q
Perigee: 500.1 km
Apogee: 514.8 km
Inclination: 97.5 °
Period: 94.6 minutes
Semi major axis: 6878 km
RCS: Unknown
Launch date: April 1, 2019
Source: United States (US)
Launch site: SRIHARIKOTA (SRI)
aabbcc
Your satellite tracking list
Your tracking list is empty




NASA's NSSDC Master Catalog

Two Line Element Set (TLE):
1 44092U 19018Q   19112.70831896  .00001594  00000-0  73182-4 0  9998
2 44092  97.4625 173.0921 0010670 206.0688 154.0012 15.21829304  3248
Source of the keplerian elements: AFSPC